contact:dominique.lefevre@mio.osupytheas.fr, maurice.libes@osupytheas.fr, didier.mallarino@osupytheas.fr
Project:EMSO http://www.emso-fr.org/EMSO-France
Depth: 2436.0 m
Title:EMSO Ligure Ouest : Data MII capteur MICROCAT
DateTime_Computer,Latitude,Longitude,Temperature,Conductivity,Pressure,DateTime_Instrument
DateTime_Computer,Latitude,Longitude,degC,S m-1,dbar,DateTime_Instrument
2020-01-17T00:02:22Z,42.805,6.029,13.2964,4.59964,2470.017,2020-1-17T02:02:55Z
2020-01-17T00:05:25Z,42.805,6.029,13.2963,4.59966,2469.993,2020-1-17T02:05:58Z
2020-01-17T00:08:28Z,42.805,6.029,13.2966,4.59963,2469.984,2020-1-17T02:09:01Z
2020-01-17T00:11:32Z,42.805,6.029,13.2964,4.59971,2469.947,2020-1-17T02:12:04Z
2020-01-17T00:14:35Z,42.805,6.029,13.2967,4.59962,2470.007,2020-1-17T02:15:07Z
2020-01-17T00:17:38Z,42.805,6.029,13.2964,4.59961,2469.947,2020-1-17T02:18:11Z
2020-01-17T00:20:41Z,42.805,6.029,13.2964,4.59962,2469.993,2020-1-17T02:21:14Z
2020-01-17T00:23:44Z,42.805,6.029,13.2965,4.59962,2469.993,2020-1-17T02:24:17Z
2020-01-17T00:26:48Z,42.805,6.029,13.2965,4.59963,2469.933,2020-1-17T02:27:20Z
2020-01-17T00:29:51Z,42.805,6.029,13.2962,4.59962,2469.947,2020-1-17T02:30:24Z
2020-01-17T00:32:54Z,42.805,6.029,13.2963,4.59965,2469.984,2020-1-17T02:33:27Z
2020-01-17T00:35:58Z,42.805,6.029,13.2963,4.59964,2469.993,2020-1-17T02:36:30Z
2020-01-17T00:39:01Z,42.805,6.029,13.2962,4.59962,2469.984,2020-1-17T02:39:33Z
2020-01-17T00:42:04Z,42.805,6.029,13.2961,4.59964,2469.993,2020-1-17T02:42:37Z
2020-01-17T00:45:07Z,42.805,6.029,13.2964,4.59963,2469.947,2020-1-17T02:45:40Z
2020-01-17T00:48:11Z,42.805,6.029,13.2967,4.59961,2469.96,2020-1-17T02:48:43Z
2020-01-17T00:51:14Z,42.805,6.029,13.2961,4.59962,2469.923,2020-1-17T02:51:47Z
2020-01-17T00:54:17Z,42.805,6.029,13.2964,4.59962,2469.993,2020-1-17T02:54:50Z
2020-01-17T00:57:20Z,42.805,6.029,13.2961,4.59967,2469.96,2020-1-17T02:57:53Z
2020-01-17T01:00:24Z,42.805,6.029,13.2959,4.59961,2469.96,2020-1-17T03:00:56Z
2020-01-17T01:03:27Z,42.805,6.029,13.2967,4.59963,2469.97,2020-1-17T03:03:59Z
2020-01-17T01:06:30Z,42.805,6.029,13.2967,4.59962,2469.96,2020-1-17T03:07:03Z
2020-01-17T01:09:33Z,42.805,6.029,13.2960,4.59962,2469.947,2020-1-17T03:10:06Z
2020-01-17T01:12:36Z,42.805,6.029,13.2965,4.59963,2469.937,2020-1-17T03:13:09Z
2020-01-17T01:15:40Z,42.805,6.029,13.2961,4.59963,2469.97,2020-1-17T03:16:12Z
2020-01-17T01:18:43Z,42.805,6.029,13.2964,4.59967,2469.97,2020-1-17T03:19:16Z
2020-01-17T01:21:46Z,42.805,6.029,13.2961,4.59964,2469.97,2020-1-17T03:22:19Z
2020-01-17T01:24:49Z,42.805,6.029,13.2964,4.59964,2469.97,2020-1-17T03:25:22Z
2020-01-17T01:27:53Z,42.805,6.029,13.2963,4.59963,2469.96,2020-1-17T03:28:25Z
2020-01-17T01:30:56Z,42.805,6.029,13.2964,4.59964,2469.96,2020-1-17T03:31:29Z
2020-01-17T01:33:59Z,42.805,6.029,13.2959,4.59966,2469.96,2020-1-17T03:34:32Z
2020-01-17T01:37:02Z,42.805,6.029,13.2965,4.59961,2469.984,2020-1-17T03:37:35Z
2020-01-17T01:40:06Z,42.805,6.029,13.2963,4.59963,2469.96,2020-1-17T03:40:38Z
2020-01-17T01:43:09Z,42.805,6.029,13.2962,4.59963,2469.96,2020-1-17T03:43:42Z
2020-01-17T01:46:12Z,42.805,6.029,13.2961,4.59966,2469.937,2020-1-17T03:46:45Z
2020-01-17T01:49:15Z,42.805,6.029,13.2966,4.59966,2469.923,2020-1-17T03:49:48Z
2020-01-17T01:52:19Z,42.805,6.029,13.2962,4.59964,2469.984,2020-1-17T03:52:51Z
2020-01-17T01:55:22Z,42.805,6.029,13.2963,4.59962,2469.984,2020-1-17T03:55:55Z
2020-01-17T01:58:25Z,42.805,6.029,13.2962,4.59975,2469.96,2020-1-17T03:58:58Z
2020-01-17T02:01:28Z,42.805,6.029,13.2961,4.59966,2469.96,2020-1-17T04:02:01Z
2020-01-17T02:04:32Z,42.805,6.029,13.2965,4.59967,2469.937,2020-1-17T04:05:04Z
2020-01-17T02:07:35Z,42.805,6.029,13.2959,4.59967,2469.97,2020-1-17T04:08:07Z
2020-01-17T02:10:38Z,42.805,6.029,13.2960,4.59965,2469.947,2020-1-17T04:11:11Z
2020-01-17T02:13:41Z,42.805,6.029,13.2964,4.59965,2470.007,2020-1-17T04:14:14Z
2020-01-17T02:16:44Z,42.805,6.029,13.2963,4.59970,2469.947,2020-1-17T04:17:17Z
2020-01-17T02:19:48Z,42.805,6.029,13.2960,4.59967,2469.96,2020-1-17T04:20:20Z
2020-01-17T02:22:51Z,42.805,6.029,13.2967,4.59968,2469.96,2020-1-17T04:23:24Z
2020-01-17T02:25:54Z,42.805,6.029,13.2961,4.59966,2469.947,2020-1-17T04:26:27Z
2020-01-17T02:28:57Z,42.805,6.029,13.2964,4.59963,2469.984,2020-1-17T04:29:30Z
2020-01-17T02:32:01Z,42.805,6.029,13.2962,4.59966,2469.97,2020-1-17T04:32:33Z
2020-01-17T02:35:04Z,42.805,6.029,13.2962,4.59966,2469.947,2020-1-17T04:35:37Z
2020-01-17T02:38:07Z,42.805,6.029,13.2964,4.59967,2469.923,2020-1-17T04:38:40Z
2020-01-17T02:41:11Z,42.805,6.029,13.2964,4.59963,2469.947,2020-1-17T04:41:43Z
2020-01-17T02:44:14Z,42.805,6.029,13.2964,4.59969,2469.96,2020-1-17T04:44:47Z
2020-01-17T02:47:17Z,42.805,6.029,13.2962,4.59966,2469.97,2020-1-17T04:47:50Z
2020-01-17T02:50:20Z,42.805,6.029,13.2964,4.59962,2469.947,2020-1-17T04:50:53Z
2020-01-17T02:53:24Z,42.805,6.029,13.2962,4.59966,2469.96,2020-1-17T04:53:56Z
2020-01-17T02:56:27Z,42.805,6.029,13.2961,4.59966,2469.947,2020-1-17T04:56:59Z
2020-01-17T02:59:30Z,42.805,6.029,13.2963,4.59962,2469.97,2020-1-17T05:00:03Z
2020-01-17T03:02:33Z,42.805,6.029,13.2958,4.59964,2469.96,2020-1-17T05:03:06Z
2020-01-17T03:05:37Z,42.805,6.029,13.2961,4.59963,2469.947,2020-1-17T05:06:09Z
2020-01-17T03:08:40Z,42.805,6.029,13.2960,4.59961,2469.947,2020-1-17T05:09:12Z
2020-01-17T03:11:43Z,42.805,6.029,13.2968,4.59963,2469.937,2020-1-17T05:12:16Z
2020-01-17T03:14:46Z,42.805,6.029,13.2962,4.59963,2469.947,2020-1-17T05:15:19Z
2020-01-17T03:17:50Z,42.805,6.029,13.2958,4.59968,2469.914,2020-1-17T05:18:22Z
2020-01-17T03:20:53Z,42.805,6.029,13.2967,4.59961,2469.947,2020-1-17T05:21:25Z
2020-01-17T03:23:56Z,42.805,6.029,13.2966,4.59962,2469.937,2020-1-17T05:24:29Z
2020-01-17T03:26:59Z,42.805,6.029,13.2961,4.59961,2469.937,2020-1-17T05:27:32Z
2020-01-17T03:30:03Z,42.805,6.029,13.2963,4.59966,2469.937,2020-1-17T05:30:35Z
2020-01-17T03:33:06Z,42.805,6.029,13.2963,4.59962,2469.914,2020-1-17T05:33:38Z
2020-01-17T03:36:09Z,42.805,6.029,13.2961,4.59961,2469.937,2020-1-17T05:36:42Z
2020-01-17T03:39:12Z,42.805,6.029,13.2961,4.59964,2469.937,2020-1-17T05:39:45Z
2020-01-17T03:42:16Z,42.805,6.029,13.2964,4.59964,2469.923,2020-1-17T05:42:48Z
2020-01-17T03:45:19Z,42.805,6.029,13.2963,4.59961,2469.923,2020-1-17T05:45:51Z
2020-01-17T03:48:22Z,42.805,6.029,13.2962,4.59962,2469.9,2020-1-17T05:48:55Z
2020-01-17T03:51:25Z,42.805,6.029,13.2968,4.59961,2469.97,2020-1-17T05:51:58Z
2020-01-17T03:54:29Z,42.805,6.029,13.2960,4.59961,2469.923,2020-1-17T05:55:01Z
2020-01-17T03:57:32Z,42.805,6.029,13.2957,4.59961,2469.9,2020-1-17T05:58:05Z
2020-01-17T04:00:35Z,42.805,6.029,13.2958,4.59964,2469.947,2020-1-17T06:01:08Z
2020-01-17T04:03:38Z,42.805,6.029,13.2963,4.59961,2469.937,2020-1-17T06:04:11Z
2020-01-17T04:06:42Z,42.805,6.029,13.2964,4.59962,2469.923,2020-1-17T06:07:14Z
2020-01-17T04:09:45Z,42.805,6.029,13.2961,4.59961,2469.937,2020-1-17T06:10:18Z
2020-01-17T04:12:48Z,42.805,6.029,13.2960,4.59963,2469.947,2020-1-17T06:13:21Z
2020-01-17T04:15:52Z,42.805,6.029,13.2962,4.59962,2469.9,2020-1-17T06:16:24Z
2020-01-17T04:18:55Z,42.805,6.029,13.2966,4.59962,2469.876,2020-1-17T06:19:28Z
2020-01-17T04:21:58Z,42.805,6.029,13.2958,4.59962,2469.947,2020-1-17T06:22:31Z
2020-01-17T04:25:01Z,42.805,6.029,13.2964,4.59961,2469.923,2020-1-17T06:25:34Z
2020-01-17T04:28:05Z,42.805,6.029,13.2962,4.59966,2469.9,2020-1-17T06:28:37Z
2020-01-17T04:31:08Z,42.805,6.029,13.2963,4.59964,2469.937,2020-1-17T06:31:41Z
2020-01-17T04:34:11Z,42.805,6.029,13.2959,4.59961,2469.923,2020-1-17T06:34:44Z
2020-01-17T04:37:14Z,42.805,6.029,13.2964,4.59964,2469.937,2020-1-17T06:37:47Z
2020-01-17T04:40:18Z,42.805,6.029,13.2964,4.59964,2469.876,2020-1-17T06:40:50Z
2020-01-17T04:43:21Z,42.805,6.029,13.2966,4.59963,2469.9,2020-1-17T06:43:54Z
2020-01-17T04:46:24Z,42.805,6.029,13.2965,4.59963,2469.9,2020-1-17T06:46:57Z
2020-01-17T04:49:27Z,42.805,6.029,13.2959,4.59961,2469.876,2020-1-17T06:50:00Z
2020-01-17T04:52:31Z,42.805,6.029,13.2961,4.59960,2469.876,2020-1-17T06:53:03Z
2020-01-17T04:55:34Z,42.805,6.029,13.2961,4.59961,2469.914,2020-1-17T06:56:07Z
2020-01-17T04:58:37Z,42.805,6.029,13.2966,4.59962,2469.923,2020-1-17T06:59:10Z
2020-01-17T05:01:40Z,42.805,6.029,13.2962,4.59961,2469.876,2020-1-17T07:02:13Z
2020-01-17T05:04:44Z,42.805,6.029,13.2961,4.59963,2469.923,2020-1-17T07:05:16Z
2020-01-17T05:07:47Z,42.805,6.029,13.2960,4.59963,2469.853,2020-1-17T07:08:20Z
2020-01-17T05:10:50Z,42.805,6.029,13.2961,4.59961,2469.9,2020-1-17T07:11:23Z
2020-01-17T05:13:54Z,42.805,6.029,13.2961,4.59964,2469.853,2020-1-17T07:14:26Z
2020-01-17T05:16:57Z,42.805,6.029,13.2962,4.59966,2469.876,2020-1-17T07:17:29Z
2020-01-17T05:20:00Z,42.805,6.029,13.2962,4.59961,2469.89,2020-1-17T07:20:33Z
2020-01-17T05:23:03Z,42.805,6.029,13.2962,4.59961,2469.876,2020-1-17T07:23:36Z
2020-01-17T05:26:07Z,42.805,6.029,13.2965,4.59963,2469.89,2020-1-17T07:26:39Z
2020-01-17T05:29:10Z,42.805,6.029,13.2962,4.59962,2469.914,2020-1-17T07:29:42Z
2020-01-17T05:32:13Z,42.805,6.029,13.2964,4.59964,2469.89,2020-1-17T07:32:46Z
2020-01-17T05:35:16Z,42.805,6.029,13.2961,4.59961,2469.914,2020-1-17T07:35:49Z
2020-01-17T05:38:20Z,42.805,6.029,13.2963,4.59962,2469.89,2020-1-17T07:38:52Z
2020-01-17T05:41:23Z,42.805,6.029,13.2967,4.59961,2469.853,2020-1-17T07:41:55Z
2020-01-17T05:44:26Z,42.805,6.029,13.2964,4.59961,2469.853,2020-1-17T07:44:59Z
2020-01-17T05:47:29Z,42.805,6.029,13.2962,4.59961,2469.876,2020-1-17T07:48:02Z
2020-01-17T05:50:32Z,42.805,6.029,13.2962,4.59961,2469.9,2020-1-17T07:51:05Z
2020-01-17T05:53:36Z,42.805,6.029,13.2964,4.59963,2469.9,2020-1-17T07:54:08Z
2020-01-17T05:56:39Z,42.805,6.029,13.2963,4.59963,2469.876,2020-1-17T07:57:12Z
2020-01-17T05:59:42Z,42.805,6.029,13.2964,4.59964,2469.9,2020-1-17T08:00:15Z
2020-01-17T06:02:46Z,42.805,6.029,13.2961,4.59964,2469.876,2020-1-17T08:03:18Z
2020-01-17T06:05:49Z,42.805,6.029,13.2956,4.59963,2469.876,2020-1-17T08:06:21Z
2020-01-17T06:08:52Z,42.805,6.029,13.2959,4.59964,2469.9,2020-1-17T08:09:25Z
2020-01-17T06:11:55Z,42.805,6.029,13.2960,4.59962,2469.876,2020-1-17T08:12:28Z
2020-01-17T06:14:58Z,42.805,6.029,13.2964,4.59961,2469.89,2020-1-17T08:15:31Z
2020-01-17T06:18:02Z,42.805,6.029,13.2965,4.59962,2469.876,2020-1-17T08:18:34Z
2020-01-17T06:21:05Z,42.805,6.029,13.2961,4.59961,2469.83,2020-1-17T08:21:38Z
2020-01-17T06:24:08Z,42.805,6.029,13.2965,4.59962,2469.9,2020-1-17T08:24:41Z
2020-01-17T06:27:12Z,42.805,6.029,13.2962,4.59962,2469.923,2020-1-17T08:27:44Z
2020-01-17T06:30:15Z,42.805,6.029,13.2963,4.59963,2469.876,2020-1-17T08:30:47Z
2020-01-17T06:33:18Z,42.805,6.029,13.2959,4.59962,2469.89,2020-1-17T08:33:51Z
2020-01-17T06:36:21Z,42.805,6.029,13.2957,4.59964,2469.9,2020-1-17T08:36:54Z
2020-01-17T06:39:25Z,42.805,6.029,13.2963,4.59962,2469.914,2020-1-17T08:39:57Z
2020-01-17T06:42:28Z,42.805,6.029,13.2964,4.59962,2469.914,2020-1-17T08:43:00Z
2020-01-17T06:45:31Z,42.805,6.029,13.2961,4.59964,2469.9,2020-1-17T08:46:04Z
2020-01-17T06:48:34Z,42.805,6.029,13.2959,4.59961,2469.9,2020-1-17T08:49:07Z
2020-01-17T06:51:38Z,42.805,6.029,13.2963,4.59964,2469.876,2020-1-17T08:52:10Z
2020-01-17T06:54:41Z,42.805,6.029,13.2962,4.59963,2469.9,2020-1-17T08:55:13Z
2020-01-17T06:57:44Z,42.805,6.029,13.2962,4.59962,2469.89,2020-1-17T08:58:17Z
2020-01-17T07:00:47Z,42.805,6.029,13.2961,4.59962,2469.9,2020-1-17T09:01:20Z
2020-01-17T07:03:51Z,42.805,6.029,13.2961,4.59963,2469.923,2020-1-17T09:04:23Z
2020-01-17T07:06:54Z,42.805,6.029,13.2961,4.59961,2469.937,2020-1-17T09:07:27Z
2020-01-17T07:09:57Z,42.805,6.029,13.2964,4.59961,2469.853,2020-1-17T09:10:30Z
2020-01-17T07:13:01Z,42.805,6.029,13.2958,4.59964,2469.9,2020-1-17T09:13:33Z
2020-01-17T07:16:04Z,42.805,6.029,13.2961,4.59962,2469.876,2020-1-17T09:16:36Z
2020-01-17T07:19:07Z,42.805,6.029,13.2963,4.59963,2469.853,2020-1-17T09:19:40Z
2020-01-17T07:22:10Z,42.805,6.029,13.2967,4.59965,2469.914,2020-1-17T09:22:43Z
2020-01-17T07:25:13Z,42.805,6.029,13.2966,4.59961,2469.9,2020-1-17T09:25:46Z
2020-01-17T07:28:17Z,42.805,6.029,13.2961,4.59965,2469.9,2020-1-17T09:28:49Z
2020-01-17T07:31:20Z,42.805,6.029,13.2964,4.59964,2469.89,2020-1-17T09:31:53Z
2020-01-17T07:34:23Z,42.805,6.029,13.2961,4.59964,2469.876,2020-1-17T09:34:56Z
2020-01-17T07:37:26Z,42.805,6.029,13.2961,4.59964,2469.923,2020-1-17T09:37:59Z
2020-01-17T07:40:30Z,42.805,6.029,13.2963,4.59963,2469.886,2020-1-17T09:41:02Z
2020-01-17T07:43:33Z,42.805,6.029,13.2957,4.59962,2469.9,2020-1-17T09:44:05Z
2020-01-17T07:46:36Z,42.805,6.029,13.2962,4.59965,2469.923,2020-1-17T09:47:09Z
2020-01-17T07:49:39Z,42.805,6.029,13.2964,4.59966,2469.923,2020-1-17T09:50:12Z
2020-01-17T07:52:43Z,42.805,6.029,13.2966,4.59963,2469.89,2020-1-17T09:53:15Z
2020-01-17T07:55:46Z,42.805,6.029,13.2961,4.59963,2469.96,2020-1-17T09:56:19Z
2020-01-17T07:58:49Z,42.805,6.029,13.2966,4.59963,2469.947,2020-1-17T09:59:22Z
2020-01-17T08:01:53Z,42.805,6.029,13.2958,4.59961,2469.923,2020-1-17T10:02:25Z
2020-01-17T08:04:56Z,42.805,6.029,13.2961,4.59962,2469.923,2020-1-17T10:05:28Z
2020-01-17T08:07:59Z,42.805,6.029,13.2964,4.59964,2469.923,2020-1-17T10:08:32Z
2020-01-17T08:11:02Z,42.805,6.029,13.2963,4.59963,2469.923,2020-1-17T10:11:35Z
2020-01-17T08:14:06Z,42.805,6.029,13.2963,4.59964,2469.914,2020-1-17T10:14:38Z
2020-01-17T08:17:09Z,42.805,6.029,13.2964,4.59964,2469.923,2020-1-17T10:17:42Z
2020-01-17T08:20:12Z,42.805,6.029,13.2964,4.59964,2469.97,2020-1-17T10:20:45Z
2020-01-17T08:23:15Z,42.805,6.029,13.2965,4.59963,2469.923,2020-1-17T10:23:48Z
2020-01-17T08:26:19Z,42.805,6.029,13.2961,4.59964,2469.96,2020-1-17T10:26:51Z
2020-01-17T08:29:22Z,42.805,6.029,13.2966,4.59962,2469.947,2020-1-17T10:29:55Z
2020-01-17T08:32:25Z,42.805,6.029,13.2964,4.59964,2469.937,2020-1-17T10:32:58Z
2020-01-17T08:35:28Z,42.805,6.029,13.2964,4.59963,2469.984,2020-1-17T10:36:01Z
2020-01-17T08:38:32Z,42.805,6.029,13.2965,4.59967,2469.947,2020-1-17T10:39:04Z
2020-01-17T08:41:35Z,42.805,6.029,13.2964,4.59963,2469.97,2020-1-17T10:42:08Z
2020-01-17T08:44:38Z,42.805,6.029,13.2967,4.59963,2469.937,2020-1-17T10:45:11Z
2020-01-17T08:47:41Z,42.805,6.029,13.2961,4.59964,2469.96,2020-1-17T10:48:14Z
2020-01-17T08:50:45Z,42.805,6.029,13.2963,4.59962,2469.984,2020-1-17T10:51:17Z
2020-01-17T08:53:48Z,42.805,6.029,13.2964,4.59964,2469.96,2020-1-17T10:54:21Z
2020-01-17T08:56:51Z,42.805,6.029,13.2966,4.59963,2469.984,2020-1-17T10:57:24Z
2020-01-17T08:59:54Z,42.805,6.029,13.2963,4.59966,2470.007,2020-1-17T11:00:27Z
2020-01-17T09:02:58Z,42.805,6.029,13.2967,4.59963,2469.956,2020-1-17T11:03:30Z
2020-01-17T09:06:01Z,42.805,6.029,13.2968,4.59966,2469.947,2020-1-17T11:06:33Z
2020-01-17T09:09:04Z,42.805,6.029,13.2962,4.59962,2469.96,2020-1-17T11:09:37Z
2020-01-17T09:12:07Z,42.805,6.029,13.2961,4.59964,2469.97,2020-1-17T11:12:40Z
2020-01-17T09:15:11Z,42.805,6.029,13.2967,4.59963,2469.984,2020-1-17T11:15:43Z
2020-01-17T09:18:14Z,42.805,6.029,13.2966,4.59964,2469.97,2020-1-17T11:18:46Z
2020-01-17T09:21:17Z,42.805,6.029,13.2964,4.59962,2469.993,2020-1-17T11:21:50Z
2020-01-17T09:24:20Z,42.805,6.029,13.2964,4.59968,2470.007,2020-1-17T11:24:53Z
2020-01-17T09:27:24Z,42.805,6.029,13.2961,4.59964,2470.017,2020-1-17T11:27:56Z
2020-01-17T09:30:27Z,42.805,6.029,13.2960,4.59962,2469.97,2020-1-17T11:31:00Z
2020-01-17T09:33:30Z,42.805,6.029,13.2966,4.59962,2469.993,2020-1-17T11:34:03Z
2020-01-17T09:36:33Z,42.805,6.029,13.2961,4.59964,2469.993,2020-1-17T11:37:06Z
2020-01-17T09:39:37Z,42.805,6.029,13.2967,4.59965,2470.017,2020-1-17T11:40:09Z
2020-01-17T09:42:40Z,42.805,6.029,13.2963,4.59964,2470.04,2020-1-17T11:43:13Z
2020-01-17T09:45:43Z,42.805,6.029,13.2964,4.59963,2470.017,2020-1-17T11:46:16Z
2020-01-17T09:48:47Z,42.805,6.029,13.2964,4.59962,2470.063,2020-1-17T11:49:19Z
2020-01-17T09:51:50Z,42.805,6.029,13.2960,4.59966,2470.017,2020-1-17T11:52:22Z
2020-01-17T09:54:53Z,42.805,6.029,13.2959,4.59963,2470.017,2020-1-17T11:55:26Z
2020-01-17T09:57:56Z,42.805,6.029,13.2963,4.59966,2470.03,2020-1-17T11:58:29Z
2020-01-17T10:01:00Z,42.805,6.029,13.2962,4.59962,2470.053,2020-1-17T12:01:32Z
2020-01-17T10:04:03Z,42.805,6.029,13.2962,4.59970,2470.04,2020-1-17T12:04:35Z
2020-01-17T10:07:06Z,42.805,6.029,13.2967,4.59964,2470.04,2020-1-17T12:07:39Z
2020-01-17T10:10:09Z,42.805,6.029,13.2964,4.59965,2470.049,2020-1-17T12:10:42Z
2020-01-17T10:13:13Z,42.805,6.029,13.2965,4.59963,2470.04,2020-1-17T12:13:45Z
2020-01-17T10:16:16Z,42.805,6.029,13.2967,4.59966,2470.03,2020-1-17T12:16:48Z
2020-01-17T10:19:19Z,42.805,6.029,13.2962,4.59964,2470.053,2020-1-17T12:19:52Z
2020-01-17T10:22:22Z,42.805,6.029,13.2962,4.59966,2470.017,2020-1-17T12:22:55Z
2020-01-17T10:25:26Z,42.805,6.029,13.2964,4.59966,2470.017,2020-1-17T12:25:58Z
2020-01-17T10:28:29Z,42.805,6.029,13.2964,4.59966,2470.03,2020-1-17T12:29:01Z
2020-01-17T10:31:32Z,42.805,6.029,13.2962,4.59965,2470.04,2020-1-17T12:32:05Z
2020-01-17T10:34:35Z,42.805,6.029,13.2963,4.59966,2470.053,2020-1-17T12:35:08Z
2020-01-17T10:37:38Z,42.805,6.029,13.2964,4.59964,2470.04,2020-1-17T12:38:11Z
2020-01-17T10:40:42Z,42.805,6.029,13.2963,4.59966,2470.077,2020-1-17T12:41:14Z
2020-01-17T10:43:45Z,42.805,6.029,13.2965,4.59965,2470.063,2020-1-17T12:44:18Z
2020-01-17T10:46:48Z,42.805,6.029,13.2966,4.59968,2470.053,2020-1-17T12:47:21Z
2020-01-17T10:49:51Z,42.805,6.029,13.2967,4.59963,2470.04,2020-1-17T12:50:24Z
2020-01-17T10:52:55Z,42.805,6.029,13.2964,4.59964,2470.063,2020-1-17T12:53:27Z
2020-01-17T10:55:58Z,42.805,6.029,13.2965,4.59966,2470.063,2020-1-17T12:56:30Z
2020-01-17T10:59:01Z,42.805,6.029,13.2964,4.59963,2470.077,2020-1-17T12:59:34Z
2020-01-17T11:02:04Z,42.805,6.029,13.2964,4.59964,2470.063,2020-1-17T13:02:37Z
2020-01-17T11:05:08Z,42.805,6.029,13.2962,4.59964,2470.077,2020-1-17T13:05:40Z
2020-01-17T11:08:11Z,42.805,6.029,13.2964,4.59964,2470.04,2020-1-17T13:08:43Z
2020-01-17T11:11:14Z,42.805,6.029,13.2962,4.59963,2470.11,2020-1-17T13:11:47Z
2020-01-17T11:14:17Z,42.805,6.029,13.2966,4.59964,2470.04,2020-1-17T13:14:50Z
2020-01-17T11:17:21Z,42.805,6.029,13.2963,4.59964,2470.053,2020-1-17T13:17:53Z
2020-01-17T11:20:24Z,42.805,6.029,13.2960,4.59964,2470.124,2020-1-17T13:20:56Z
2020-01-17T11:23:27Z,42.805,6.029,13.2966,4.59963,2470.087,2020-1-17T13:24:00Z
2020-01-17T11:26:30Z,42.805,6.029,13.2962,4.59962,2470.1,2020-1-17T13:27:03Z
2020-01-17T11:29:33Z,42.805,6.029,13.2967,4.59963,2470.077,2020-1-17T13:30:06Z
2020-01-17T11:32:37Z,42.805,6.029,13.2966,4.59963,2470.077,2020-1-17T13:33:09Z
2020-01-17T11:35:40Z,42.805,6.029,13.2964,4.59964,2470.077,2020-1-17T13:36:13Z
2020-01-17T11:38:44Z,42.805,6.029,13.2967,4.59966,2470.063,2020-1-17T13:39:16Z
2020-01-17T11:41:47Z,42.805,6.029,13.2964,4.59964,2470.063,2020-1-17T13:42:19Z
2020-01-17T11:44:50Z,42.805,6.029,13.2963,4.59963,2470.063,2020-1-17T13:45:23Z
2020-01-17T11:47:53Z,42.805,6.029,13.2966,4.59963,2470.124,2020-1-17T13:48:26Z
2020-01-17T11:50:56Z,42.805,6.029,13.2967,4.59963,2470.087,2020-1-17T13:51:29Z
2020-01-17T11:54:00Z,42.805,6.029,13.2964,4.59964,2470.063,2020-1-17T13:54:32Z
2020-01-17T11:57:03Z,42.805,6.029,13.2967,4.59966,2470.04,2020-1-17T13:57:36Z
2020-01-17T12:00:06Z,42.805,6.029,13.2964,4.59964,2470.063,2020-1-17T14:00:39Z
2020-01-17T12:03:10Z,42.805,6.029,13.2967,4.59964,2470.063,2020-1-17T14:03:42Z
2020-01-17T12:06:13Z,42.805,6.029,13.2964,4.59964,2470.063,2020-1-17T14:06:45Z
2020-01-17T12:09:16Z,42.805,6.029,13.2965,4.59963,2470.077,2020-1-17T14:09:49Z
2020-01-17T12:12:19Z,42.805,6.029,13.2966,4.59963,2470.063,2020-1-17T14:12:52Z
2020-01-17T12:15:23Z,42.805,6.029,13.2964,4.59963,2470.087,2020-1-17T14:15:55Z
2020-01-17T12:18:26Z,42.805,6.029,13.2967,4.59965,2470.1,2020-1-17T14:18:58Z
2020-01-17T12:21:29Z,42.805,6.029,13.2962,4.59967,2470.1,2020-1-17T14:22:02Z
2020-01-17T12:24:32Z,42.805,6.029,13.2968,4.59966,2470.063,2020-1-17T14:25:05Z
2020-01-17T12:27:36Z,42.805,6.029,13.2962,4.59964,2470.063,2020-1-17T14:28:08Z
2020-01-17T12:30:39Z,42.805,6.029,13.2962,4.59967,2470.04,2020-1-17T14:31:12Z
2020-01-17T12:33:42Z,42.805,6.029,13.2961,4.59962,2470.077,2020-1-17T14:34:15Z
2020-01-17T12:36:45Z,42.805,6.029,13.2970,4.59963,2470.063,2020-1-17T14:37:18Z
2020-01-17T12:39:49Z,42.805,6.029,13.2966,4.59964,2470.063,2020-1-17T14:40:21Z
2020-01-17T12:42:52Z,42.805,6.029,13.2965,4.59963,2470.1,2020-1-17T14:43:25Z
2020-01-17T12:45:55Z,42.805,6.029,13.2968,4.59966,2470.04,2020-1-17T14:46:28Z
2020-01-17T12:48:58Z,42.805,6.029,13.2967,4.59963,2470.063,2020-1-17T14:49:31Z
2020-01-17T12:52:02Z,42.805,6.029,13.2963,4.59963,2470.077,2020-1-17T14:52:34Z
2020-01-17T12:55:05Z,42.805,6.029,13.2966,4.59963,2470.077,2020-1-17T14:55:38Z
2020-01-17T12:58:08Z,42.805,6.029,13.2966,4.59963,2470.04,2020-1-17T14:58:41Z
2020-01-17T13:01:11Z,42.805,6.029,13.2964,4.59963,2470.04,2020-1-17T15:01:44Z
2020-01-17T13:04:15Z,42.805,6.029,13.2961,4.59965,2470.04,2020-1-17T15:04:47Z
2020-01-17T13:07:18Z,42.805,6.029,13.2964,4.59964,2470.063,2020-1-17T15:07:50Z
2020-01-17T13:10:21Z,42.805,6.029,13.2966,4.59964,2470.087,2020-1-17T15:10:54Z
2020-01-17T13:13:24Z,42.805,6.029,13.2965,4.59963,2470.053,2020-1-17T15:13:57Z
2020-01-17T13:16:28Z,42.805,6.029,13.2963,4.59964,2470.04,2020-1-17T15:17:00Z
2020-01-17T13:19:31Z,42.805,6.029,13.2965,4.59966,2470.053,2020-1-17T15:20:04Z
2020-01-17T13:22:34Z,42.805,6.029,13.2964,4.59964,2470.026,2020-1-17T15:23:07Z
2020-01-17T13:25:37Z,42.805,6.029,13.2966,4.59963,2470.04,2020-1-17T15:26:10Z
2020-01-17T13:28:41Z,42.805,6.029,13.2967,4.59965,2470.077,2020-1-17T15:29:13Z
2020-01-17T13:31:44Z,42.805,6.029,13.2966,4.59964,2470.04,2020-1-17T15:32:16Z
2020-01-17T13:34:47Z,42.805,6.029,13.2965,4.59963,2470.063,2020-1-17T15:35:20Z
2020-01-17T13:37:50Z,42.805,6.029,13.2964,4.59964,2470.077,2020-1-17T15:38:23Z
2020-01-17T13:40:53Z,42.805,6.029,13.2971,4.59966,2470.04,2020-1-17T15:41:26Z
2020-01-17T13:43:57Z,42.805,6.029,13.2966,4.59964,2470.053,2020-1-17T15:44:29Z
2020-01-17T13:47:00Z,42.805,6.029,13.2966,4.59964,2470.04,2020-1-17T15:47:33Z
2020-01-17T13:50:03Z,42.805,6.029,13.2968,4.59964,2470.04,2020-1-17T15:50:36Z
2020-01-17T13:53:06Z,42.805,6.029,13.2964,4.59966,2470.087,2020-1-17T15:53:39Z
2020-01-17T13:56:10Z,42.805,6.029,13.2968,4.59964,2470.077,2020-1-17T15:56:42Z
2020-01-17T13:59:13Z,42.805,6.029,13.2964,4.59966,2470.04,2020-1-17T15:59:46Z
2020-01-17T14:02:16Z,42.805,6.029,13.2964,4.59964,2470.04,2020-1-17T16:02:49Z
2020-01-17T14:05:19Z,42.805,6.029,13.2966,4.59969,2470.063,2020-1-17T16:05:52Z
2020-01-17T14:08:23Z,42.805,6.029,13.2964,4.59963,2470.1,2020-1-17T16:08:55Z
2020-01-17T14:11:26Z,42.805,6.029,13.2967,4.59965,2470.077,2020-1-17T16:11:59Z
2020-01-17T14:14:29Z,42.805,6.029,13.2967,4.59964,2470.063,2020-1-17T16:15:02Z
2020-01-17T14:17:32Z,42.805,6.029,13.2963,4.59965,2470.063,2020-1-17T16:18:05Z
2020-01-17T14:20:35Z,42.805,6.029,13.2964,4.59964,2470.063,2020-1-17T16:21:08Z
2020-01-17T14:23:39Z,42.805,6.029,13.2967,4.59966,2470.077,2020-1-17T16:24:11Z
2020-01-17T14:26:42Z,42.805,6.029,13.2964,4.59967,2470.04,2020-1-17T16:27:15Z
2020-01-17T14:29:45Z,42.805,6.029,13.2968,4.59966,2470.077,2020-1-17T16:30:18Z
2020-01-17T14:32:48Z,42.805,6.029,13.2967,4.59964,2470.063,2020-1-17T16:33:21Z
2020-01-17T14:35:51Z,42.805,6.029,13.2967,4.59963,2470.04,2020-1-17T16:36:24Z
2020-01-17T14:38:55Z,42.805,6.029,13.2965,4.59966,2470.063,2020-1-17T16:39:27Z
2020-01-17T14:41:58Z,42.805,6.029,13.2965,4.59966,2470.04,2020-1-17T16:42:31Z
2020-01-17T14:45:01Z,42.805,6.029,13.2966,4.59966,2470.077,2020-1-17T16:45:34Z
2020-01-17T14:48:04Z,42.805,6.029,13.2967,4.59964,2470.053,2020-1-17T16:48:37Z
2020-01-17T14:51:08Z,42.805,6.029,13.2964,4.59966,2470.03,2020-1-17T16:51:40Z
2020-01-17T14:54:11Z,42.805,6.029,13.2967,4.59966,2470.007,2020-1-17T16:54:43Z
2020-01-17T14:57:14Z,42.805,6.029,13.2963,4.59966,2470.04,2020-1-17T16:57:47Z
2020-01-17T15:00:17Z,42.805,6.029,13.2967,4.59967,2470.053,2020-1-17T17:00:50Z
2020-01-17T15:03:20Z,42.805,6.029,13.2968,4.59965,2470.077,2020-1-17T17:03:53Z
2020-01-17T15:06:24Z,42.805,6.029,13.2964,4.59967,2470.053,2020-1-17T17:06:56Z
2020-01-17T15:09:27Z,42.805,6.029,13.2967,4.59968,2470.063,2020-1-17T17:10:00Z
2020-01-17T15:12:30Z,42.805,6.029,13.2967,4.59964,2470.053,2020-1-17T17:13:03Z
2020-01-17T15:15:33Z,42.805,6.029,13.2964,4.59965,2470.017,2020-1-17T17:16:06Z